Location: Doschendorf
(50.0069°N, 11.0602°E)
Time: 19:24:13
(UTC+00:00)

FengYun 1-2 T - Pass Details

Date: 17 November 2019
Orbit: 846 x 882 km, 98.7° (Epoch: 06 December)

Event Time Altitude Azimuth Distance (km) Brightness Sun altitude
Rises 16:48:40 0° 149° (SSE) 3,418 7.2 -12.6°
Reaches altitude 10° 16:51:04 10° 145° (SE) 2,481 6.4 -13.0°
Maximum altitude 16:56:26 57° 69° (ENE) 999 4.2 -13.8°
Drops below altitude 10° 17:01:49 10° 352° (N) 2,484 6.6 -14.6°
Sets 17:04:13 0° 348° (NNW) 3,422 7.4 -15.0°
